[[{"header":{"parameterUnit":"m.s-1","parameterCategory":1,"la1":30.2991,"la2":30.254,"lo1":-89.0895,"lo2":-89.0444,"dy":0.0017,"dx":0.0017,"nx":28,"ny":28,"refTime":"2023-07-19T21:00:00:Z","depth":0,"parameterNumber":2,"parameterNumberName":"U-component_of_WINDS"},"data":[0,0,0,0,0,0,0,0,0,0,0,0,0,0,0,0,0,0,0,0,0,0,0,0,0,0,0,0,0,0,0,0,0,0,0,0,0,0,0,0,0,0,0,0,0,0,0,0,0,0,0,0,0,0,0,0,0,0,0.4171,0.4172,0,0.4226,0.4227,0.4227,0.4242,0.4242,0.4241,0.4241,0.4297,0.4299,0.4301,0,0,0,0,0,0,0,0,0,0,0,0,0,0.4077,0.4078,0.4171,0.4172,0.4172,0.4226,0.4227,0.4228,0.4242,0.4242,0.4241,0.4241,0.4297,0.4299,0.4301,0,0,0,0,0,0,0,0,0,0,0,0,0,0.4123,0.4079,0.4171,0.4186,0.4188,0.4226,0.4227,0.4228,0.4242,0.4242,0.4241,0.4241,0.4296,0.4298,0.4301,0.4328,0,0,0.4309,0.4311,0,0,0,0,0,0,0,0,0.4121,0.4127,0.4183,0.4185,0.4187,0.4227,0.4214,0.4261,0.4242,0.4222,0.4241,0.4241,0.4274,0.4279,0.429,0.433,0.4333,0.431,0.4311,0.4312,0.4313,0,0,0,0,0,0,0,0.4117,0.4124,0.4193,0.4184,0.4187,0.419,0.4196,0.4223,0.425,0.4223,0.4225,0.4231,0.4275,0.4287,0.4291,0.4333,0.4309,0.4312,0.4314,0.4315,0.4397,0.4398,0,0,0,0,0,0,0.4112,0.4122,0.4191,0.4194,0.4152,0.4192,0.4199,0.4215,0.425,0.4255,0.4231,0.4231,0.4283,0.4288,0.4293,0.4326,0.4312,0.4315,0.4316,0.4396,0.4397,0.4398,0,0,0,0,0,0,0.411,0.4118,0.4189,0.4158,0.4168,0.4194,0.4212,0.4216,0.4228,0.4256,0.426,0.4239,0.4283,0.429,0.4319,0.4328,0.4316,0.4319,0.4396,0.4397,0.4397,0.4392,0,0,0,0,0,0,0.4107,0.4117,0.4128,0.4159,0.4169,0.4214,0.4212,0.4217,0.4233,0.4234,0.4264,0.4269,0.4283,0.4315,0.4321,0.4332,0.4321,0.4395,0.4396,0.4397,0.4391,0.4392,0.4393,0,0,0,0,0,0.4103,0.4124,0.4128,0.4136,0.4183,0.4214,0.422,0.4236,0.4234,0.4244,0.4262,0.4268,0.4326,0.4318,0.4325,0.4336,0.4395,0.4396,0.4397,0.4391,0.4392,0.4393,0,0,0,0,0,0,0.4093,0.4128,0.4133,0.4164,0.4186,0.4217,0.4231,0.4237,0.426,0.426,0.4279,0.4286,0.4313,0.4328,0.4318,0.4363,0.436,0.4363,0.4353,0.4354,0.4355,0.4351,0.4323,0,0,0,0,0,0.4095,0.4117,0.4146,0.4171,0.4182,0.4204,0.4218,0.4229,0.4252,0.4261,0.4281,0.4303,0.4326,0.4341,0.4364,0.4393,0.44,0.4405,0.4406,0.4406,0.4409,0.4424,0.4427,0.4402,0.4402,0.4402,0,0,0.4098,0.412,0.4133,0.4169,0.4188,0.421,0.4212,0.4236,0.4252,0.4265,0.4293,0.4308,0.4334,0.4363,0.4377,0.4376,0.4417,0.4408,0.4408,0.441,0.4426,0.4428,0.443,0.4403,0.4403,0.4403,0,0,0.4114,0.4134,0.4156,0.4174,0.4201,0.4216,0.4221,0.425,0.4261,0.429,0.43,0.4319,0.4359,0.4377,0.4391,0.4414,0.442,0.4421,0.4426,0.4441,0.4443,0.4445,0.4452,0.4455,0.4423,0.4423,0.4423,0,0.4115,0.4149,0.4166,0.4189,0.4205,0.4217,0.4239,0.4256,0.4289,0.4299,0.4298,0.4348,0.4366,0.4399,0.4405,0.4416,0.4422,0.4417,0.4441,0.4443,0.4445,0.4452,0.4455,0.4423,0.4423,0.4423,0.4423,0,0.4148,0.4171,0.4186,0.4218,0.4235,0.4257,0.4277,0.4292,0.4301,0.4316,0.4345,0.4367,0.4394,0.4403,0.4412,0.4437,0.4436,0.4438,0.4435,0.4447,0.4454,0.4457,0.4423,0.4423,0.4423,0.4423,0,0,0.416,0.42,0.4205,0.4219,0.425,0.4269,0.4291,0.4318,0.433,0.4353,0.4372,0.4405,0.4407,0.4423,0.4434,0.4447,0.4462,0.4447,0.4448,0.4449,0.449,0.4488,0.4491,0.4467,0.4467,0.4468,0.4488,0,0.418,0.4221,0.4237,0.427,0.4292,0.4304,0.4323,0.4344,0.4358,0.4378,0.4394,0.4416,0.4417,0.4427,0.4441,0.4458,0.4471,0.4457,0.4484,0.4485,0.4477,0.4495,0.4493,0.4511,0.4491,0.4492,0.4492,0,0.4209,0.4231,0.4267,0.4294,0.4304,0.4321,0.4347,0.4366,0.4389,0.4399,0.4416,0.4426,0.445,0.4446,0.4478,0.4468,0.448,0.449,0.4491,0.4494,0.4489,0.4498,0.4518,0.452,0.4497,0.4496,0.4496,0,0.4213,0.4252,0.4279,0.4291,0.4323,0.4335,0.4349,0.4372,0.4387,0.4409,0.4419,0.4443,0.4456,0.4475,0.4491,0.4487,0.4522,0.4519,0.4529,0.4529,0.4536,0.4535,0.4557,0.4545,0.4545,0.4545,0.4544,0,0.4234,0.4255,0.4281,0.4297,0.4321,0.4338,0.4361,0.4376,0.4396,0.4415,0.4427,0.4444,0.4464,0.4484,0.4497,0.4521,0.4527,0.4535,0.4538,0.4534,0.4533,0.4542,0.4541,0.4545,0.4545,0.4545,0.4545,0,0.4242,0.4261,0.429,0.4318,0.4326,0.4342,0.4366,0.4382,0.4397,0.442,0.4426,0.4449,0.4473,0.4491,0.4522,0.453,0.4556,0.4559,0.4548,0.4549,0.4559,0.4557,0.4587,0.4591,0.4576,0.4576,0.4576,0,0.4254,0.427,0.4301,0.4314,0.4328,0.435,0.4365,0.4382,0.4397,0.4425,0.4437,0.4462,0.4482,0.4519,0.4538,0.4562,0.4566,0.4574,0.4569,0.4564,0.4565,0.4564,0.4565,0.4575,0.4575,0.4575,0.4575,0,0.4272,0.428,0.4302,0.4326,0.4344,0.4364,0.4384,0.4394,0.4415,0.4432,0.4456,0.4472,0.4503,0.4527,0.4553,0.4567,0.4574,0.4576,0.458,0.4575,0.4568,0.4571,0.4549,0.4576,0.4576,0.4576,0.4576,0.4576,0.4282,0.4297,0.432,0.4344,0.4361,0.4379,0.4395,0.4411,0.4432,0.4459,0.4468,0.4493,0.4515,0.455,0.4564,0.4584,0.4584,0.4589,0.459,0.4591,0.4591,0.4565,0.4589,0.4589,0.4589,0.4589,0.4589,0,0.4301,0.4316,0.4337,0.4365,0.4383,0.4389,0.4411,0.4426,0.4448,0.4468,0.4488,0.4515,0.4539,0.4559,0.4583,0.4595,0.4599,0.46,0.4599,0.4602,0.459,0.4584,0.4597,0.4597,0.4597,0.4597,0.4597,0.4597,0.4312,0.4337,0.4348,0.4382,0.4397,0.4422,0.4434,0.4451,0.4467,0.4497,0.4516,0.453,0.455,0.4575,0.4597,0.4602,0.461,0.4611,0.4617,0.4604,0.4603,0.4602,0.4597,0.4613,0.4613,0.4628,0.4628,0.4629]},{"header":{"parameterUnit":"m.s-1","parameterCategory":1,"la1":30.2991,"la2":30.254,"lo1":-89.0895,"lo2":-89.0444,"dy":0.0017,"dx":0.0017,"nx":28,"ny":28,"refTime":"2023-07-19T21:00:00:Z","depth":0,"parameterNumber":3,"parameterNumberName":"V-component_of_WINDS"},"data":[0,0,0,0,0,0,0,0,0,0,0,0,0,0,0,0,0,0,0,0,0,0,0,0,0,0,0,0,0,0,0,0,0,0,0,0,0,0,0,0,0,0,0,0,0,0,0,0,0,0,0,0,0,0,0,0,0,0,4.3196,4.3196,0,4.317,4.3169,4.3169,4.3087,4.3085,4.3083,4.3081,4.3056,4.3057,4.3058,0,0,0,0,0,0,0,0,0,0,0,0,0,4.3178,4.3178,4.3196,4.3196,4.3196,4.317,4.3169,4.3169,4.3087,4.3085,4.3083,4.3081,4.3056,4.3057,4.3058,0,0,0,0,0,0,0,0,0,0,0,0,0,4.3172,4.3179,4.3196,4.3151,4.3147,4.317,4.3169,4.3169,4.3088,4.3085,4.3082,4.3079,4.3056,4.3057,4.3059,4.3123,0,0,4.3063,4.3064,0,0,0,0,0,0,0,0,4.3172,4.3173,4.3158,4.3155,4.315,4.3129,4.3154,4.3154,4.3088,4.311,4.3081,4.3078,4.3083,4.3082,4.3083,4.3122,4.3121,4.3064,4.3064,4.3065,4.3066,0,0,0,0,0,0,0,4.3173,4.3174,4.3186,4.3158,4.3153,4.3133,4.313,4.3153,4.3112,4.3108,4.3102,4.31,4.308,4.3082,4.3082,4.3121,4.3064,4.3065,4.3066,4.3066,4.3211,4.3213,0,0,0,0,0,0,4.3179,4.3174,4.3187,4.3185,4.3155,4.3136,4.3132,4.3138,4.3112,4.3105,4.3102,4.3096,4.308,4.308,4.3081,4.3153,4.3065,4.3067,4.3068,4.3208,4.3211,4.3214,0,0,0,0,0,0,4.3179,4.3181,4.3188,4.3178,4.3177,4.3139,4.3147,4.3139,4.3141,4.3107,4.31,4.3112,4.3078,4.3078,4.3113,4.3152,4.3067,4.3069,4.3204,4.3209,4.3213,4.3301,0,0,0,0,0,0,4.3179,4.3182,4.3205,4.3179,4.3178,4.322,4.315,4.3141,4.3144,4.3135,4.3114,4.3108,4.3076,4.3111,4.3115,4.3152,4.307,4.3201,4.3206,4.3211,4.3294,4.3307,4.3319,0,0,0,0,0,4.3179,4.3232,4.3207,4.3209,4.3207,4.3222,4.3222,4.3184,4.3147,4.3171,4.3149,4.3109,4.3147,4.3115,4.3118,4.3157,4.3198,4.3205,4.3211,4.3289,4.3305,4.3319,0,0,0,0,0,0,4.3264,4.3228,4.32,4.3246,4.3238,4.3208,4.3237,4.3202,4.3205,4.3197,4.315,4.3146,4.3187,4.3176,4.3141,4.3218,4.3166,4.3173,4.3224,4.3239,4.3251,4.3252,4.3071,0,0,0,0,0,4.3289,4.3304,4.3271,4.3315,4.3312,4.3276,4.3281,4.3252,4.3242,4.3239,4.322,4.3212,4.3222,4.323,4.3238,4.3293,4.3287,4.3321,4.3333,4.3344,4.335,4.3378,4.3392,4.3236,4.3236,4.3236,0,0,4.3339,4.332,4.3333,4.3331,4.3322,4.3339,4.3273,4.3294,4.3306,4.3242,4.3273,4.3259,4.3248,4.3292,4.3311,4.3284,4.3392,4.3352,4.336,4.3361,4.3386,4.3401,4.3414,4.324,4.3239,4.3239,0,0,4.3438,4.3427,4.3461,4.3453,4.3439,4.3414,4.3423,4.3399,4.3387,4.3417,4.3369,4.3383,4.3402,4.3396,4.3395,4.3493,4.3456,4.3497,4.3561,4.3589,4.3601,4.3612,4.3646,4.3659,4.3504,4.3504,4.3505,0,4.3502,4.3525,4.3483,4.3507,4.3508,4.345,4.3485,4.3479,4.3469,4.3471,4.3441,4.3463,4.3452,4.3494,4.3517,4.3519,4.3527,4.3499,4.3603,4.3613,4.3622,4.3654,4.3667,4.3509,4.3509,4.3508,4.3508,0,4.3604,4.3621,4.3651,4.3642,4.3646,4.3676,4.3638,4.3648,4.3619,4.3598,4.363,4.3614,4.3617,4.3625,4.3598,4.3664,4.3647,4.3611,4.3557,4.3643,4.3672,4.3684,4.3517,4.3515,4.3513,4.3512,0,0,4.3756,4.3723,4.3735,4.3729,4.371,4.3723,4.375,4.3752,4.3761,4.3757,4.3778,4.3795,4.3761,4.3761,4.3732,4.3757,4.3834,4.3717,4.3716,4.3738,4.3905,4.3931,4.3946,4.381,4.3812,4.3814,4.3905,0,4.385,4.3892,4.3856,4.3906,4.3921,4.3866,4.389,4.3881,4.3863,4.3873,4.3853,4.3865,4.382,4.3819,4.3841,4.382,4.3867,4.3813,4.3829,4.383,4.3832,4.3962,4.399,4.4077,4.3917,4.3919,4.392,0,4.3964,4.3963,4.4015,4.3992,4.3997,4.4018,4.4017,4.4028,4.4017,4.4002,4.4002,4.3966,4.3992,4.3941,4.3975,4.3939,4.3944,4.3935,4.3938,4.3936,4.3879,4.3963,4.4104,4.4117,4.3938,4.3936,4.3935,0,4.4068,4.408,4.4112,4.411,4.4084,4.4101,4.4091,4.4077,4.4081,4.4081,4.4083,4.4086,4.4088,4.4091,4.4058,4.4024,4.4097,4.4043,4.4085,4.4086,4.4102,4.4101,4.4244,4.4107,4.4107,4.4107,4.4106,0,4.4175,4.4209,4.4159,4.4178,4.4214,4.4172,4.4209,4.4194,4.4183,4.4199,4.4153,4.4169,4.4125,4.4137,4.4112,4.4144,4.4145,4.4134,4.4126,4.4137,4.4139,4.4139,4.4131,4.411,4.4109,4.4109,4.4108,0,4.4297,4.4265,4.4296,4.4269,4.4263,4.4291,4.4268,4.4285,4.4264,4.4285,4.4288,4.4254,4.4266,4.4234,4.4241,4.4224,4.427,4.4253,4.4273,4.4268,4.4311,4.4307,4.4458,4.4476,4.4329,4.433,4.4332,0,4.4366,4.4391,4.4366,4.4373,4.4366,4.4378,4.4381,4.4342,4.4347,4.4337,4.4355,4.4363,4.4367,4.4389,4.4366,4.4371,4.4353,4.4406,4.4354,4.4364,4.4353,4.4351,4.4353,4.4417,4.4418,4.442,4.4421,0,4.4494,4.4476,4.4482,4.4483,4.4488,4.4487,4.4483,4.4492,4.4449,4.4458,4.4469,4.4472,4.4479,4.4488,4.4488,4.4478,4.4443,4.4438,4.4448,4.4458,4.4468,4.4462,4.4301,4.4434,4.4433,4.4432,4.4431,4.4431,4.459,4.4609,4.4595,4.4603,4.4596,4.4593,4.4608,4.4588,4.4596,4.4598,4.4574,4.459,4.4579,4.4576,4.457,4.4582,4.4558,4.4573,4.4576,4.458,4.4587,4.4468,4.4582,4.4582,4.4582,4.4581,4.4581,0,4.4714,4.4702,4.471,4.4705,4.4712,4.4678,4.4672,4.468,4.4694,4.4686,4.4691,4.4704,4.4712,4.469,4.4694,4.4709,4.4692,4.4711,4.4709,4.4707,4.4609,4.4599,4.4724,4.4724,4.4724,4.4724,4.4724,4.4724,4.4779,4.4809,4.479,4.4816,4.4804,4.4818,4.4817,4.4815,4.4808,4.4824,4.483,4.4816,4.4802,4.4806,4.4812,4.4805,4.4809,4.4833,4.4821,4.4728,4.4714,4.4701,4.4692,4.4834,4.4834,4.4918,4.4919,4.4919]}]]